N6GIW Weather Reports


time (UTC)temp
C
wind
direction
speed
KPH
gust
KPH
rain 1hr
cm
rain 24hr
cm
rain mn
cm
humidity
%
barometer
mb
20260906132003 20 244 3.2 4.8 0.10 0.18 0.18 81 1023.8
20260906131503 20 242 3.2 4.8 0.13 0.18 0.18 81 1023.6
20260906131004 20 230 1.6 4.8 0.13 0.15 0.15 82 1023.7
20260906130504 20 238 1.6 4.8 0.13 0.15 0.15 81 1023.8
20260906125503 20 253 3.2 4.8 0.13 0.15 0.15 82 1023.6
20260906125004 20 243 1.6 3.2 0.15 0.15 0.15 83 1023.5
20260906124003 20 238 0.0 3.2 0.13 0.13 0.13 82 1023.5
20260906123503 20 238 1.6 4.8 0.13 0.13 0.13 83 1023.5
20260906123004 20 239 1.6 4.8 0.13 0.13 0.13 81 1023.6
20260906122503 20 250 3.2 4.8 0.10 0.10 0.10 81 1023.6
20260906122003 20 243 1.6 8.0 0.08 0.08 0.08 80 1023.7
20260906121503 21 226 3.2 8.0 0.05 0.05 0.05 78 1023.6
20260906121003 21 245 3.2 4.8 0.03 0.03 0.03 77 1023.7
20260906120503 21 267 1.6 4.8 0.03 0.03 0.03 77 1023.7
20260906120004 21 269 3.2 4.8 0.03 0.03 0.03 75 1023.6
20260906115003 22 274 3.2 4.8 0.00 0.00 0.00 69 1023.3
20260906114503 22 248 1.6 1.6 0.00 0.00 0.00 69 1023.2
20260906114004 23 244 1.6 3.2 0.00 0.00 0.00 68 1023.1
20260906113503 23 244 1.6 4.8 0.00 0.00 0.00 65 1023.1
20260906113003 23 242 1.6 3.2 0.00 0.00 0.00 64 1023.0
20260906112504 23 241 0.0 3.2 0.00 0.00 0.00 62 1022.9
20260906111503 23 223 4.8 9.7 0.00 0.00 0.00 60 1022.5
20260906111003 23 210 8.0 11.3 0.00 0.00 0.00 60 1022.5
20260906110503 23 224 8.0 12.9 0.00 0.00 0.00 60 1022.7
20260906105503 23 225 6.4 11.3 0.00 0.00 0.00 61 1022.7
20260906105003 23 216 4.8 12.9 0.00 0.00 0.00 61 1022.9
20260906104003 23 191 4.8 9.7 0.00 0.00 0.00 61 1023.1
20260906103503 23 184 3.2 8.0 0.00 0.00 0.00 60 1023.1
20260906102503 24 179 4.8 11.3 0.00 0.00 0.00 57 1022.9
20260906102003 24 172 8.0 11.3 0.00 0.00 0.00 56 1022.9
20260906101504 25 177 9.7 14.5 0.00 0.00 0.00 55 1022.9
20260906101004 25 172 9.7 14.5 0.00 0.00 0.00 55 1023.0
20260906100003 25 164 6.4 11.3 0.00 0.00 0.00 51 1023.1
20260906095503 25 184 8.0 12.9 0.00 0.00 0.00 51 1023.1
20260906095003 25 207 4.8 9.7 0.00 0.00 0.00 51 1023.0
20260906094503 25 244 4.8 11.3 0.00 0.00 0.00 51 1023.0
20260906093504 25 227 0.0 1.6 0.00 0.00 0.00 51 1023.1
20260906093003 25 227 0.0 3.2 0.00 0.00 0.00 51 1023.0
20260906092505 25 227 3.2 8.0 0.00 0.00 0.00 51 1023.0
20260906092004 25 211 4.8 4.8 0.00 0.00 0.00 50 1023.0
20260906091503 25 214 3.2 11.3 0.00 0.00 0.00 49 1023.0
20260906091003 25 215 3.2 9.7 0.00 0.00 0.00 48 1022.9
20260906085504 25 255 3.2 4.8 0.00 0.00 0.00 47 1023.0
20260906085006 25 210 3.2 9.7 0.00 0.00 0.00 47 1023.0
20260906084503 25 261 0.0 0.0 0.00 0.00 0.00 46 1023.0
20260906084003 25 261 1.6 4.8 0.00 0.00 0.00 46 1023.1
20260906083504 25 262 3.2 12.9 0.00 0.00 0.00 47 1023.0
20260906083003 25 278 4.8 11.3 0.00 0.00 0.00 48 1023.1
20260906082503 25 231 4.8 8.0 0.00 0.00 0.00 46 1023.1
20260906082003 25 253 1.6 4.8 0.00 0.00 0.00 46 1022.9
20260906081504 25 240 0.0 4.8 0.00 0.00 0.00 46 1022.9
20260906080503 25 264 0.0 1.6 0.00 0.00 0.00 44 1022.9
20260906080004 25 265 0.0 1.6 0.00 0.00 0.00 41 1022.9
20260906075504 25 307 0.0 0.0 0.00 0.00 0.00 40 1022.9
20260906075004 25 307 0.0 0.0 0.00 0.00 0.00 40 1022.8
20260906074503 25 307 0.0 0.0 0.00 0.00 0.00 39 1022.8
20260906074004 25 307 0.0 0.0 0.00 0.00 0.00 40 1022.9
20260906073004 25 307 0.0 1.6 0.00 0.00 0.00 40 1022.8
20260906072503 25 307 0.0 1.6 0.00 0.00 0.00 40 1022.8
20260906072003 25 294 1.6 4.8 0.00 0.00 0.00 44 1022.8
20260906071503 25 270 3.2 4.8 0.00 0.00 0.00 46 1022.9
20260906071003 25 301 0.0 3.2 0.00 0.00 0.00 44 1022.8
20260906070503 25 296 1.6 4.8 0.00 0.00 0.00 45 1022.8
20260906070004 25 269 6.4 12.9 0.00 0.00 0.00 45 1022.8
20260906065007 25 261 4.8 11.3 0.00 0.00 0.00 45 1022.9
20260906064503 25 242 4.8 11.3 0.00 0.00 0.00 44 1022.9
20260906064004 25 232 6.4 16.1 0.00 0.00 0.00 44 1022.9
20260906063504 25 245 4.8 9.7 0.00 0.00 0.00 43 1022.9
20260906063004 25 233 8.0 11.3 0.00 0.00 0.00 44 1023.0
20260906062504 25 227 6.4 11.3 0.00 0.00 0.00 43 1022.9
20260906062004 25 223 3.2 9.7 0.00 0.00 0.00 41 1023.0
20260906061504 25 204 4.8 12.9 0.00 0.00 0.00 41 1023.1
20260906060003 25 264 1.6 11.3 0.00 0.00 0.00 41 1023.0
20260906055504 25 244 3.2 12.9 0.00 0.00 0.00 42 1023.1
20260906055004 25 238 3.2 9.7 0.00 0.00 0.00 41 1023.1
20260906054503 25 237 1.6 11.3 0.00 0.00 0.00 41 1023.1
20260906054004 25 249 0.0 3.2 0.00 0.00 0.00 41 1023.2
20260906053504 25 248 0.0 4.8 0.00 0.00 0.00 40 1023.4
20260906053003 26 223 3.2 9.7 0.00 0.00 0.00 40 1023.1
20260906052505 26 229 8.0 14.5 0.00 0.00 0.00 39 1023.0
20260906052003 25 248 6.4 12.9 0.00 0.00 0.00 38 1023.0
20260906051003 25 228 9.7 12.9 0.00 0.00 0.00 38 1023.0
20260906050503 25 229 4.8 9.7 0.00 0.00 0.00 38 1023.0
20260906050003 25 209 8.0 16.1 0.00 0.00 0.00 38 1023.1
20260906045503 25 207 9.7 16.1 0.00 0.00 0.00 38 1023.0
20260906045006 25 213 8.0 14.5 0.00 0.00 0.00 38 1023.0
20260906044504 25 221 8.0 14.5 0.00 0.00 0.00 38 1023.0
20260906044004 25 250 9.7 16.1 0.00 0.00 0.00 38 1023.0
20260906043504 25 237 6.4 16.1 0.00 0.00 0.00 38 1022.9
20260906043003 25 221 3.2 8.0 0.00 0.00 0.00 38 1023.0
20260906042503 25 232 6.4 12.9 0.00 0.00 0.00 39 1022.9
20260906042003 25 227 3.2 12.9 0.00 0.00 0.00 39 1022.8
20260906041503 25 204 3.2 9.7 0.00 0.00 0.00 38 1022.8
20260906040003 26 240 6.4 14.5 0.00 0.00 0.00 38 1022.6
20260906035503 26 237 6.4 19.3 0.00 0.00 0.00 38 1022.6
20260906035003 26 239 11.3 19.3 0.00 0.00 0.00 38 1022.6
20260906034503 26 230 9.7 16.1 0.00 0.00 0.00 38 1022.4
20260906034003 26 238 6.4 19.3 0.00 0.00 0.00 38 1022.4
20260906033004 26 230 9.7 20.9 0.00 0.00 0.00 38 1022.2
20260906032503 26 218 9.7 16.1 0.00 0.00 0.00 38 1022.1
20260906032003 26 219 14.5 24.1 0.00 0.00 0.00 38 1022.1
20260906031504 26 214 14.5 20.9 0.00 0.00 0.00 38 1022.1
20260906031003 26 218 11.3 22.5 0.00 0.00 0.00 38 1022.1
20260906030503 26 220 14.5 25.7 0.00 0.00 0.00 38 1022.1
20260906030003 26 207 14.5 19.3 0.00 0.00 0.00 38 1022.1
20260906025503 26 236 11.3 20.9 0.00 0.00 0.00 38 1022.1
20260906025003 26 224 11.3 22.5 0.00 0.00 0.00 38 1021.9
20260906024503 26 219 12.9 22.5 0.00 0.00 0.00 38 1022.0
20260906024004 26 231 16.1 29.0 0.00 0.00 0.00 37 1021.9
20260906023504 26 228 16.1 27.4 0.00 0.00 0.00 37 1021.8
20260906023004 27 214 17.7 29.0 0.00 0.00 0.00 37 1021.9
20260906022503 27 220 16.1 27.4 0.00 0.00 0.00 37 1021.9
20260906022004 27 222 12.9 20.9 0.00 0.00 0.00 37 1021.9
20260906021503 27 225 11.3 32.2 0.00 0.00 0.00 36 1022.0
20260906021004 27 216 16.1 27.4 0.00 0.00 0.00 36 1022.0
20260906020503 27 239 11.3 22.5 0.00 0.00 0.00 35 1022.0
20260906020003 27 212 14.5 25.7 0.00 0.00 0.00 35 1021.9
20260906015503 27 216 16.1 25.7 0.00 0.00 0.00 34 1021.9
20260906015004 28 214 12.9 24.1 0.00 0.00 0.00 34 1021.9
20260906014004 28 209 16.1 24.1 0.00 0.00 0.00 33 1021.8
20260906013503 28 209 17.7 29.0 0.00 0.00 0.00 32 1021.9
20260906013004 28 203 12.9 25.7 0.00 0.00 0.00 32 1021.9
20260906012503 28 219 16.1 25.7 0.00 0.00 0.00 32 1021.8
20260906012003 28 195 11.3 20.9 0.00 0.00 0.00 32 1021.9
20260906011503 29 189 16.1 24.1 0.00 0.00 0.00 31 1021.9
20260906010504 29 215 12.9 20.9 0.00 0.00 0.00 32 1021.9
20260906005504 29 221 16.1 25.7 0.00 0.00 0.00 31 1022.0
20260906005003 29 224 19.3 25.7 0.00 0.00 0.00 32 1021.9
20260906004503 29 200 16.1 24.1 0.00 0.00 0.00 31 1022.0
20260906004003 29 202 19.3 32.2 0.00 0.00 0.00 31 1021.9
20260906003504 29 214 17.7 25.7 0.00 0.00 0.00 31 1021.9
20260906003003 29 221 17.7 27.4 0.00 0.00 0.00 31 1021.9
20260906002504 30 197 22.5 32.2 0.00 0.00 0.00 30 1021.7
20260906002004 30 220 14.5 22.5 0.00 0.00 0.00 31 1021.9
20260906001004 30 224 16.1 32.2 0.00 0.00 0.00 31 1022.0
20260905234504 30 205 17.7 32.2 0.00 0.00 0.00 31 1022.0
20260905234004 30 201 22.5 32.2 0.00 0.00 0.00 30 1022.1
20260905232503 30 190 19.3 32.2 0.00 0.00 0.00 32 1022.3
20260905232003 30 202 24.1 40.2 0.00 0.00 0.00 33 1022.0
20260905231503 30 205 17.7 32.2 0.00 0.00 0.00 32 1022.1
20260905230503 31 194 20.9 33.8 0.00 0.00 0.00 29 1021.9
20260905225503 31 203 27.4 41.8 0.00 0.00 0.00 29 1022.1
20260905225006 31 207 19.3 35.4 0.00 0.00 0.00 29 1022.0
20260905224504 32 199 25.7 38.6 0.00 0.00 0.00 28 1021.9
20260905224004 32 195 17.7 38.6 0.00 0.00 0.00 28 1022.1
20260905223504 31 227 20.9 38.6 0.00 0.00 0.00 29 1022.0
20260905223004 31 214 25.7 40.2 0.00 0.00 0.00 28 1022.0
20260905222503 32 205 25.7 33.8 0.00 0.00 0.00 26 1022.1
20260905222004 31 203 19.3 32.2 0.00 0.00 0.00 27 1022.1
20260905221504 31 201 20.9 38.6 0.00 0.00 0.00 28 1022.3
20260905221004 31 194 27.4 38.6 0.00 0.00 0.00 27 1022.2
20260905220003 31 196 22.5 33.8 0.00 0.00 0.00 28 1022.3
20260905215504 32 205 22.5 40.2 0.00 0.00 0.00 27 1022.4
20260905214503 30 194 25.7 45.1 0.00 0.00 0.00 29 1022.4
20260905214004 31 191 27.4 41.8 0.00 0.00 0.00 28 1022.5
20260905213503 32 200 25.7 41.8 0.00 0.00 0.00 27 1022.5
20260905212503 31 204 27.4 45.1 0.00 0.00 0.00 28 1022.6
20260905212003 31 198 25.7 41.8 0.00 0.00 0.00 28 1022.6
20260905211003 31 203 27.4 40.2 0.00 0.00 0.00 27 1022.5
20260905210503 32 200 27.4 45.1 0.00 0.00 0.00 27 1022.5
20260905210003 32 196 25.7 38.6 0.00 0.00 0.00 27 1022.5
20260905205503 31 196 29.0 46.7 0.00 0.00 0.00 26 1022.5
20260905205007 31 200 27.4 38.6 0.00 0.00 0.00 27 1022.5
20260905204004 31 189 29.0 41.8 0.00 0.00 0.00 27 1022.5
20260905203504 31 206 25.7 41.8 0.00 0.00 0.00 27 1022.6
20260905203004 31 201 29.0 41.8 0.00 0.00 0.00 27 1022.5
20260905202503 31 189 29.0 41.8 0.00 0.00 0.00 27 1022.6
20260905202003 31 209 25.7 40.2 0.00 0.00 0.00 27 1022.7
20260905201503 31 189 24.1 41.8 0.00 0.00 0.00 28 1022.8
20260905201003 31 194 20.9 37.0 0.00 0.00 0.00 28 1022.6
20260905200503 31 203 29.0 40.2 0.00 0.00 0.00 28 1022.8
20260905195504 31 206 22.5 33.8 0.00 0.00 0.00 29 1023.0
20260905195004 31 210 25.7 38.6 0.00 0.00 0.00 29 1023.3
20260905194503 31 192 25.7 38.6 0.00 0.00 0.00 30 1023.2
20260905194004 31 195 27.4 40.2 0.00 0.00 0.00 30 1023.2
20260905193004 31 191 27.4 46.7 0.00 0.00 0.00 30 1023.4
20260905192003 31 210 20.9 48.3 0.00 0.00 0.00 29 1023.5
20260905191503 30 189 24.1 40.2 0.00 0.00 0.00 28 1023.6
20260905191004 31 182 22.5 37.0 0.00 0.00 0.00 27 1023.7
20260905190503 30 187 29.0 46.7 0.00 0.00 0.00 27 1023.6
20260905190004 30 198 25.7 45.1 0.00 0.00 0.00 27 1023.7
20260905185504 30 194 25.7 40.2 0.00 0.00 0.00 28 1023.6
20260905185004 30 184 29.0 40.2 0.00 0.00 0.00 25 1023.7
20260905184503 30 186 27.4 41.8 0.00 0.00 0.00 25 1023.8
20260905184004 30 198 22.5 38.6 0.00 0.00 0.00 26 1023.7
20260905183504 30 199 29.0 41.8 0.00 0.00 0.00 22 1023.6
20260905183004 30 182 29.0 46.7 0.00 0.00 0.00 23 1023.8
20260905182504 30 178 29.0 45.1 0.00 0.00 0.00 23 1024.0
20260905182003 30 200 27.4 40.2 0.00 0.00 0.00 22 1023.9
20260905181504 30 188 25.7 37.0 0.00 0.00 0.00 20 1024.0
20260905181003 30 198 25.7 37.0 0.00 0.00 0.00 22 1024.0
20260905180504 30 186 27.4 46.7 0.00 0.00 0.00 23 1023.9
20260905180004 30 179 27.4 41.8 0.00 0.00 0.00 20 1023.8
20260905175003 29 173 32.2 46.7 0.00 0.00 0.00 21 1023.8
20260905174504 30 184 25.7 40.2 0.00 0.00 0.00 20 1023.8
20260905174004 29 184 27.4 46.7 0.00 0.00 0.00 20 1023.7
20260905173004 29 169 29.0 41.8 0.00 0.00 0.00 18 1023.5
20260905172503 29 175 29.0 48.3 0.00 0.00 0.00 16 1023.6
20260905172003 29 192 24.1 45.1 0.00 0.00 0.00 15 1023.5
20260905171503 29 190 25.7 41.8 0.00 0.00 0.00 15 1023.5
20260905170503 29 190 24.1 35.4 0.00 0.00 0.00 11 1023.3
20260905170003 29 187 22.5 37.0 0.00 0.00 0.00 11 1023.3
20260905165003 28 189 16.1 27.4 0.00 0.00 0.00 9 1023.4
20260905164503 28 193 16.1 25.7 0.00 0.00 0.00 9 1023.5
20260905164003 28 215 16.1 32.2 0.00 0.00 0.00 10 1023.4
20260905163503 28 209 9.7 24.1 0.00 0.00 0.00 11 1023.5
20260905163003 27 216 9.7 19.3 0.00 0.00 0.00 11 1023.5
20260905162504 26 123 6.4 19.3 0.00 0.00 0.00 21 1023.5
20260905162004 26 33 0.0 4.8 0.00 0.00 0.00 22 1023.6
20260905161004 25 35 0.0 1.6 0.00 0.00 0.00 22 1023.5
20260905160504 25 75 0.0 3.2 0.00 0.00 0.00 24 1023.4
20260905160003 24 39 1.6 4.8 0.00 0.00 0.00 24 1023.5
20260905155504 24 22 3.2 8.0 0.00 0.00 0.00 26 1023.4
20260905155004 24 33 3.2 8.0 0.00 0.00 0.00 27 1023.4
20260905154503 24 44 3.2 12.9 0.00 0.00 0.00 27 1023.5
20260905154003 24 29 1.6 4.8 0.00 0.00 0.00 26 1023.5
20260905153003 23 37 0.0 1.6 0.00 0.00 0.00 27 1023.5
20260905152504 23 28 0.0 0.0 0.00 0.00 0.00 27 1023.5
20260905152004 23 265 0.0 0.0 0.00 0.00 0.00 26 1023.5
20260905151503 23 247 0.0 0.0 0.00 0.00 0.00 26 1023.5
20260905151004 23 229 0.0 0.0 0.00 0.00 0.00 26 1023.5
20260905150503 22 229 0.0 0.0 0.00 0.00 0.00 27 1023.5
20260905150003 22 229 0.0 0.0 0.00 0.00 0.00 26 1023.3
20260905145504 21 229 0.0 0.0 0.00 0.00 0.00 25 1023.3
20260905145005 21 229 0.0 0.0 0.00 0.00 0.00 25 1023.2
20260905144503 21 229 0.0 0.0 0.00 0.00 0.00 26 1023.3
20260905144004 21 229 0.0 0.0 0.00 0.00 0.00 26 1023.2
20260905143503 21 229 0.0 0.0 0.00 0.00 0.00 26 1023.2
20260905143004 20 224 0.0 0.0 0.00 0.00 0.00 29 1023.3
20260905142503 20 223 0.0 3.2 0.00 0.00 0.00 30 1023.2
20260905142003 19 209 0.0 0.0 0.00 0.00 0.00 33 1023.1
20260905141004 18 221 0.0 0.0 0.00 0.00 0.00 32 1023.0
20260905140504 17 221 0.0 0.0 0.00 0.00 0.00 33 1023.1
20260905140003 17 227 0.0 0.0 0.00 0.00 0.00 35 1023.1
20260905135504 16 227 0.0 0.0 0.00 0.00 0.00 36 1022.7
20260905135005 16 227 0.0 0.0 0.00 0.00 0.00 37 1022.6
20260905134503 16 227 0.0 0.0 0.00 0.00 0.00 37 1022.6
20260905134003 16 227 0.0 0.0 0.00 0.00 0.00 37 1022.5
20260905133504 15 234 0.0 0.0 0.00 0.00 0.00 38 1022.4
20260905133003 15 236 0.0 0.0 0.00 0.00 0.00 38 1022.3
20260905132504 15 236 0.0 0.0 0.00 0.00 0.00 39 1022.3